GFSNE_sfc_30mbdewp_228.txt.gz
Dewpoint
55 54 53 52 51 49 48 48 47 46 47 48 49 51 51 50 50 49 49 49 48 48 49 49 48 48 47 47 47 47 47 46 45 45 44 43 44 43
56 55 53 53 52 50 49 48 47 46 46 48 49 50 51 50 50 49 49 49 48 47 48 47 47 47 47 48 47 47 47 47 46 45 44 42 44 41
57 56 54 54 53 51 50 48 46 46 45 46 48 50 50 49 49 50 50 49 48 47 47 47 47 48 48 47 47 46 46 46 45 45 44 42 43 44
56 56 55 54 54 54 52 50 48 47 46 46 48 48 49 49 49 49 50 50 49 46 46 47 47 47 47 46 46 45 45 45 44 44 43 43 43 42
55 56 55 55 54 55 54 53 51 49 49 47 47 47 49 50 47 49 49 49 49 47 46 46 47 47 46 46 45 45 44 43 42 42 43 43 42 41
55 55 56 55 55 55 55 54 54 53 51 50 49 46 47 47 47 47 45 47 46 47 47 47 47 46 46 45 44 44 43 42 41 42 42 41 41 41
56 56 55 55 55 55 55 55 54 53 51 51 50 45 45 45 46 46 45 45 45 46 45 46 46 46 45 45 44 43 42 42 41 41 41 40 40 40
57 57 57 55 55 54 54 54 55 54 52 51 50 45 45 46 46 46 45 41 39 42 44 43 45 44 44 44 44 42 42 41 40 40 40 40 39 39
58 57 56 56 55 55 53 51 51 52 53 53 51 47 45 45 45 45 44 42 42 40 43 40 42 42 42 43 42 41 41 40 39 39 39 39 38 38
56 57 56 55 55 54 54 52 51 51 51 51 51 48 48 45 46 45 43 40 37 39 40 34 36 36 38 40 41 40 40 39 39 38 38 38 38 37
51 55 56 55 55 53 53 51 50 49 49 50 50 48 45 44 45 42 38 37 34 34 35 32 32 31 32 34 39 39 39 38 38 37 38 37 37 36
47 49 51 54 53 50 52 50 47 47 45 44 44 43 44 43 43 43 38 38 33 31 33 31 32 30 29 31 34 38 37 37 37 37 37 36 36 35
44 46 46 47 49 49 50 49 48 44 42 42 40 39 41 41 41 43 40 40 34 31 33 33 31 32 30 28 30 32 33 34 34 34 35 35 34 32
42 42 43 44 44 44 44 45 44 41 39 38 37 36 37 38 39 38 38 39 36 34 34 35 32 32 29 27 27 30 31 31 32 31 32 33 33 32
40 39 39 40 40 39 39 38 38 37 36 35 35 35 35 35 34 34 34 34 34 34 35 35 33 33 32 28 27 28 28 30 31 31 31 31 31 31
35 35 35 34 35 33 34 34 35 35 35 34 33 32 32 33 33 33 32 32 31 30 34 34 34 33 30 29 28 28 30 26 30 30 30 31 31 32
33 34 34 33 32 32 32 33 33 34 33 32 32 31 31 32 31 32 32 32 29 28 28 30 32 33 32 30 28 28 28 27 29 29 29 27 29 29
34 33 32 32 32 32 32 31 32 32 32 32 32 31 31 30 30 31 31 31 29 29 29 29 30 30 29 30 31 28 28 27 28 29 28 26 26 28
33 32 32 32 31 32 32 32 31 31 32 32 31 31 30 30 30 30 31 30 29 29 29 30 29 29 27 26 29 30 27 27 26 26 27 26 24 26
33 32 32 32 32 32 32 31 31 31 31 31 31 31 30 30 30 30 30 29 29 29 28 30 30 30 27 26 27 29 29 27 26 25 25 27 28 26
32 32 32 32 32 32 32 32 31 31 31 31 31 31 30 30 30 30 30 29 29 28 27 28 30 32 30 29 27 28 29 29 28 26 26 25 24 24
32 32 32 32 32 32 32 32 31 31 31 31 31 31 31 30 29 29 30 29 28 28 28 29 31 30 29 28 25 26 28 29 31 29 29 26 22 20
32 32 32 32 32 32 32 32 31 31 31 31 31 31 31 30 30 30 30 30 29 29 28 27 28 29 28 28 26 25 26 27 28 27 28 29 25 23

GFSNE_sfc_30mbdewp_231.txt.gz
Dewpoint
55 54 54 54 52 51 50 49 47 46 47 48 50 52 52 51 51 50 50 49 48 48 50 50 50 50 49 49 49 49 48 49 48 46 47 46 45 46
56 55 55 54 53 52 51 50 49 48 47 49 49 50 52 51 51 50 50 49 48 48 48 49 49 49 49 49 49 49 49 49 48 47 47 46 46 46
57 56 55 55 54 53 51 50 49 49 48 49 50 50 51 51 51 50 50 50 49 48 48 48 48 48 48 48 49 48 48 48 48 47 48 46 45 45
57 56 56 55 55 54 52 50 49 49 49 49 49 49 50 51 51 50 50 50 50 48 47 47 47 47 47 48 48 47 47 47 47 47 46 46 45 45
57 57 57 56 55 55 53 52 51 50 50 49 49 49 50 50 50 50 50 50 50 49 47 46 46 46 47 47 47 46 46 46 46 45 44 44 44 45
58 58 57 57 56 55 55 53 52 52 51 49 49 47 48 48 49 48 48 49 49 49 47 47 47 47 47 47 46 46 45 45 45 44 43 43 42 42
57 57 57 57 56 56 56 55 54 53 52 50 50 49 46 46 48 48 47 48 47 47 46 46 47 47 47 46 46 46 45 44 44 43 42 42 41 41
57 57 57 56 55 54 55 55 56 54 53 53 51 50 48 48 48 47 47 43 42 45 46 45 47 46 46 46 46 45 44 44 43 42 42 41 41 41
57 57 57 57 55 55 54 54 54 54 54 54 52 53 50 49 48 47 46 44 44 42 45 43 44 45 46 46 46 44 43 43 42 42 41 41 40 40
50 54 57 56 55 55 55 54 53 53 52 50 52 53 50 48 49 48 46 44 38 40 43 39 37 39 40 43 44 43 43 42 42 41 40 40 39 37
45 48 51 56 55 54 55 54 52 51 52 52 52 53 50 48 48 45 41 40 37 37 36 36 33 33 33 36 41 42 42 41 41 40 40 40 38 37
42 44 47 48 54 53 53 53 51 50 49 47 47 48 48 46 45 47 42 41 37 34 35 35 32 33 32 32 36 40 40 40 40 40 39 39 39 38
40 42 43 45 47 48 49 53 51 49 47 46 44 43 43 43 44 46 42 43 37 34 35 34 32 31 29 29 32 36 38 38 38 38 39 38 38 38
39 40 42 43 43 44 46 47 47 45 42 41 40 39 39 40 41 40 40 41 38 37 35 36 33 33 29 28 29 31 33 36 36 35 36 37 37 36
38 39 40 40 41 41 42 42 42 42 40 38 38 36 37 36 35 35 35 35 34 34 36 34 34 33 31 28 27 30 29 30 32 31 32 32 33 33
36 35 35 35 36 35 35 36 38 38 38 36 35 33 33 34 34 34 33 33 32 31 33 34 34 34 30 29 28 28 30 28 30 31 31 31 32 32
34 33 33 34 34 33 33 34 34 35 35 33 33 32 32 33 32 34 33 32 30 29 29 31 33 33 31 30 28 29 29 28 30 30 30 29 30 31
34 34 33 33 33 32 32 32 32 33 33 33 32 32 31 31 31 32 33 32 30 29 29 29 30 30 29 30 31 28 28 27 29 29 30 27 27 30
34 33 33 33 32 32 32 32 31 32 32 32 32 31 31 31 31 31 31 31 29 29 29 30 30 29 26 24 29 30 27 27 28 27 28 27 25 27
33 33 32 32 32 32 32 31 31 31 31 31 31 31 31 30 30 30 30 30 29 29 28 30 30 30 27 27 26 29 29 27 26 25 26 28 28 29
32 32 32 32 32 32 32 31 31 31 31 31 31 31 31 31 30 31 30 29 29 29 27 28 30 30 29 29 28 27 29 28 28 26 26 25 24 24
32 32 32 32 32 32 32 32 31 31 31 31 31 31 31 31 30 30 29 29 28 28 29 30 31 31 30 27 25 27 27 29 30 30 28 24 22 20
32 32 32 32 32 32 32 32 31 31 31 31 31 31 31 30 30 30 30 29 29 28 28 28 29 29 28 27 25 26 27 27 27 26 27 29 26 23

GFSNE_sfc_30mbdewp_234.txt.gz
Dewpoint
53 54 53 53 53 51 50 49 47 46 47 48 50 53 53 52 52 51 51 50 49 49 50 51 52 52 51 51 51 50 50 50 48 50 49 48 47 48
56 54 54 53 54 53 51 50 50 48 47 49 49 51 52 52 52 51 51 50 49 48 48 50 51 51 51 50 50 50 50 49 50 50 49 48 47 47
57 56 54 54 54 54 53 52 50 50 49 50 50 51 52 52 52 51 51 50 50 48 48 48 49 50 50 49 49 49 49 49 50 50 49 48 48 47
58 57 56 55 55 54 53 52 51 51 50 50 50 50 50 52 52 51 51 51 51 49 47 47 48 49 48 48 48 48 48 49 49 49 48 48 48 48
58 58 57 57 56 55 54 53 52 51 51 51 51 50 50 51 52 51 51 51 51 50 47 46 47 47 47 47 48 48 48 49 48 48 47 47 47 46
58 59 58 58 58 56 55 54 53 52 51 51 51 49 48 49 50 50 49 50 50 50 49 47 47 47 46 47 47 47 48 47 47 46 46 45 45 45
58 58 59 59 58 58 57 56 54 53 52 51 50 50 47 47 48 49 48 48 49 49 49 47 47 47 47 46 47 48 47 47 46 45 45 44 43 44
58 58 58 57 57 56 56 56 55 54 53 52 51 50 50 48 50 49 48 46 45 46 48 46 47 46 47 47 48 47 46 46 46 45 44 43 43 42
50 55 57 57 56 56 54 55 55 54 53 54 52 52 51 49 49 48 48 47 48 44 47 45 45 46 47 48 47 46 45 45 45 45 43 42 42 41
45 47 49 54 56 55 55 53 54 54 52 52 55 54 53 51 51 50 49 47 41 42 45 43 39 42 39 45 46 45 44 44 44 44 43 42 41 41
43 44 46 47 50 54 55 55 54 54 54 53 53 54 53 51 51 48 45 43 40 40 38 40 35 36 35 38 42 44 43 43 44 43 42 41 40 40
40 42 43 44 45 47 49 54 52 51 51 50 49 49 49 49 48 50 45 45 38 37 37 39 34 35 37 33 36 41 42 42 42 42 41 41 40 40
39 39 40 42 43 44 44 48 52 51 50 49 48 46 46 46 46 48 46 47 40 39 37 37 33 33 33 31 32 36 40 40 41 41 41 40 40 39
39 39 40 41 41 42 42 43 46 48 47 45 43 42 43 43 43 43 43 43 41 41 37 37 34 34 32 30 31 32 35 37 39 38 39 40 39 38
38 39 39 39 39 41 42 42 42 44 44 42 42 41 39 38 36 36 35 36 35 35 37 36 35 33 33 31 29 31 32 32 35 36 37 37 37 37
36 36 36 36 36 37 37 38 38 40 42 43 40 35 34 35 35 36 34 35 33 32 34 35 34 33 30 30 30 31 30 30 31 32 34 35 36 35
34 34 34 35 36 35 35 35 35 36 38 36 35 34 34 34 33 35 34 34 32 30 30 32 33 32 31 31 30 31 30 29 31 31 31 31 31 32
33 35 35 34 35 35 34 33 34 34 34 34 34 33 33 33 32 33 34 33 32 30 30 30 31 30 30 31 32 29 29 28 30 30 31 29 28 31
34 35 35 34 34 33 33 33 32 33 33 33 33 32 32 32 32 32 32 31 30 30 30 31 31 30 28 26 29 31 28 28 29 29 30 30 28 29
33 34 34 34 33 33 32 32 31 32 32 32 32 32 32 32 31 31 31 30 29 29 29 30 31 30 29 27 26 29 30 28 28 27 27 28 29 29
32 33 34 33 33 32 32 32 32 31 31 31 31 31 31 32 31 31 30 30 29 29 28 29 31 31 31 31 28 27 28 30 29 27 27 25 24 25
33 33 33 33 32 32 32 32 31 31 31 31 31 31 32 32 31 30 30 29 29 29 29 30 31 31 30 27 27 27 27 29 31 29 29 25 24 22
33 33 32 32 32 32 32 32 31 31 31 31 31 31 31 31 31 30 30 29 29 29 29 28 30 30 29 27 26 26 26 26 26 26 28 29 24 24

GFSNE_sfc_30mbdewp_237.txt.gz
Dewpoint
56 56 54 54 53 53 53 52 47 44 48 51 52 54 54 54 54 53 53 52 50 50 50 51 53 53 53 53 52 52 52 51 52 51 50 49 48 47
57 55 55 54 55 55 53 51 52 48 45 48 51 53 55 54 54 54 54 53 50 49 49 50 51 52 52 52 52 51 52 51 52 51 51 50 50 49
57 56 55 55 55 55 55 52 51 50 48 48 51 53 54 54 53 54 54 53 53 49 48 48 49 50 51 51 51 51 50 50 50 51 51 51 50 50
57 57 56 56 56 55 56 54 52 52 50 49 54 53 53 55 55 54 53 53 53 51 48 47 48 48 49 50 50 49 49 49 49 50 50 50 50 49
58 57 57 56 56 56 56 55 54 53 53 51 52 53 54 54 54 54 54 53 53 52 48 47 46 47 47 48 48 48 48 48 48 49 50 50 50 49
59 59 58 58 57 57 56 56 55 54 54 52 52 52 52 53 53 53 52 53 53 52 51 49 48 46 46 47 47 47 47 47 48 49 49 49 49 48
59 59 59 59 58 58 58 56 55 54 54 53 53 53 50 49 51 52 52 52 52 52 51 50 49 48 47 46 47 47 47 47 48 48 48 48 47 46
58 58 59 58 57 57 57 57 56 55 55 54 53 52 51 50 51 51 51 49 47 49 50 48 48 48 48 48 47 48 46 47 48 48 47 47 46 46
50 51 56 58 57 57 55 54 54 55 55 55 53 52 52 53 52 50 50 48 50 48 49 48 47 47 48 48 47 46 46 46 47 47 46 46 45 45
46 47 48 50 54 56 57 55 55 54 53 52 56 55 54 55 53 52 51 49 45 44 48 46 42 45 45 48 47 46 46 45 45 45 45 45 44 44
43 45 46 47 48 48 53 55 54 54 54 53 54 55 55 54 54 50 48 46 44 43 41 44 37 40 38 40 42 46 45 44 44 44 44 44 44 43
40 41 42 44 45 45 47 50 52 52 52 51 50 50 52 51 50 52 48 48 42 41 39 43 36 38 40 35 37 41 43 43 43 43 43 43 43 43
38 39 41 41 41 42 42 46 48 50 50 51 50 49 49 48 47 51 49 50 43 43 40 41 36 36 37 34 34 37 41 40 41 42 42 42 41 43
36 38 39 39 39 40 40 43 44 45 47 48 46 46 46 45 45 47 46 46 45 46 39 38 36 37 36 34 35 34 36 39 40 40 40 41 41 42
37 36 36 37 37 38 40 40 40 42 44 44 45 44 43 42 38 38 36 36 36 37 39 37 37 36 36 35 32 32 34 34 37 38 38 39 38 39
36 37 37 35 37 38 38 39 39 41 42 43 43 39 36 37 38 37 36 37 35 33 34 36 36 35 32 33 33 32 32 32 35 36 37 37 38 37
35 35 35 35 37 38 37 37 37 37 39 39 39 37 36 36 36 36 36 36 35 32 31 32 33 33 33 33 32 32 31 31 33 33 35 33 34 35
33 33 34 35 37 38 37 37 36 36 37 37 36 36 35 35 34 35 35 36 34 32 31 31 32 32 32 32 33 31 32 31 31 32 33 31 30 31
32 32 33 35 36 37 37 37 37 35 35 35 35 35 34 34 33 33 34 33 32 32 31 32 33 32 30 29 30 32 32 31 30 30 31 31 30 30
33 32 33 35 36 36 36 35 34 33 33 34 33 33 33 33 32 32 33 32 31 30 30 32 32 32 32 30 29 31 31 31 31 30 30 31 31 32
31 32 33 34 35 36 35 34 33 33 33 33 32 32 33 33 32 32 32 31 30 30 29 30 32 33 33 32 30 28 30 30 30 30 29 28 27 27
31 33 34 34 35 34 33 33 32 32 32 32 32 32 33 32 32 31 31 30 30 30 30 30 33 34 32 30 29 28 28 30 30 28 27 27 27 26
32 34 34 35 34 34 33 32 32 32 32 32 32 32 32 31 32 31 31 31 31 30 31 30 32 31 29 29 29 28 28 27 28 28 28 27 25 24

GFSNE_sfc_30mbdewp_243.txt.gz
Dewpoint
57 57 55 55 54 52 50 49 47 48 49 53 53 56 56 56 56 56 56 52 50 50 51 53 55 55 55 55 54 54 54 54 53 53 52 52 51 50
58 57 56 56 55 55 53 51 50 49 49 51 54 54 56 54 56 56 57 55 51 50 50 50 52 54 54 54 54 54 54 54 53 53 53 52 52 52
60 58 57 57 56 56 55 53 52 50 49 50 53 55 57 56 54 57 57 57 55 50 50 49 49 51 52 53 53 53 53 53 53 53 53 52 53 52
60 59 58 58 58 57 57 55 53 54 52 51 53 54 56 58 58 58 57 56 57 53 50 49 49 49 50 51 52 52 52 52 52 52 52 52 53 52
60 60 59 59 58 58 58 56 55 55 55 53 54 56 56 58 58 58 58 57 56 55 50 49 48 48 48 49 50 50 51 50 50 51 51 51 51 52
60 60 59 59 58 58 57 57 58 57 57 56 55 56 57 58 58 58 58 58 57 55 51 50 49 47 47 47 48 48 49 49 49 49 49 49 50 50
60 60 59 59 58 58 57 57 57 57 57 56 55 55 56 57 57 58 58 58 58 58 55 52 50 49 48 46 47 47 48 48 49 49 48 48 47 49
59 59 59 58 57 57 56 57 58 57 56 56 55 54 53 53 55 55 56 55 55 59 57 57 54 53 52 51 48 47 46 46 47 48 48 47 47 48
50 56 59 59 57 57 55 56 57 57 57 57 55 55 55 55 54 54 55 54 55 55 56 54 56 54 54 53 52 49 46 46 46 46 46 46 46 47
47 47 49 51 54 58 57 54 56 56 55 55 57 57 56 56 56 55 54 54 51 52 54 51 50 51 52 53 52 50 48 46 45 45 45 46 45 45
42 46 46 47 46 47 53 56 55 55 56 55 56 56 56 57 58 55 52 50 49 48 49 50 45 47 44 47 50 49 48 47 46 45 44 44 44 44
41 42 42 43 43 43 46 48 52 53 53 52 53 54 53 53 52 56 53 51 46 46 45 49 43 44 47 40 41 45 45 45 45 44 44 43 43 43
40 40 42 41 40 40 41 45 47 47 49 50 51 51 52 53 51 52 54 53 47 49 46 47 42 41 45 42 38 39 41 42 43 43 42 42 42 43
36 39 41 39 38 38 38 41 42 41 43 45 46 48 48 49 50 50 51 51 51 51 45 45 44 43 43 40 43 37 39 41 42 42 42 42 41 42
36 37 35 35 36 36 38 38 38 40 42 43 44 45 45 46 44 43 40 39 39 39 43 43 44 41 42 42 40 37 37 37 40 40 40 40 40 40
37 36 35 36 35 36 37 38 39 40 41 41 43 43 42 42 43 41 41 40 40 38 36 38 40 41 40 39 39 36 36 37 37 39 39 39 40 41
32 32 33 34 34 36 37 37 38 39 40 40 41 41 41 41 41 39 39 38 40 38 35 34 36 36 35 37 37 36 35 34 36 36 37 35 36 38
31 31 32 33 33 34 35 37 38 38 39 40 40 40 40 39 39 37 38 39 39 37 34 32 33 34 34 34 35 34 34 33 34 35 36 34 32 34
31 30 31 32 32 33 34 36 39 39 39 39 40 40 39 39 38 37 37 38 37 36 34 33 35 36 34 32 32 33 33 32 33 33 34 33 32 32
31 30 31 32 32 32 33 35 37 40 40 39 39 39 39 38 37 36 36 37 36 34 33 34 35 37 37 33 30 30 35 32 33 31 30 30 30 32
31 31 32 31 30 31 32 33 36 39 39 38 38 38 37 37 36 36 36 36 35 34 32 32 35 35 33 33 30 30 30 35 35 33 32 31 30 30
32 31 31 32 32 32 32 33 36 37 37 36 36 36 36 36 36 35 35 34 34 34 33 32 33 33 34 31 29 28 27 29 28 27 27 30 30 29
33 33 32 33 33 33 33 33 34 35 36 36 35 35 35 34 35 35 35 34 34 32 31 31 33 35 33 31 29 29 28 29 30 28 27 26 26 29

GFSNE_sfc_30mbdewp_246.txt.gz
Dewpoint
56 56 56 56 56 54 52 50 48 51 52 54 54 57 57 57 57 56 55 51 51 51 52 54 55 55 55 55 55 55 54 54 53 53 53 53 53 51
55 55 55 56 57 56 53 51 51 51 51 53 54 56 57 56 57 57 56 54 50 50 50 51 53 55 55 55 55 54 54 54 54 54 54 53 53 52
56 56 56 57 57 57 55 54 51 49 47 50 54 55 56 56 56 57 57 56 51 49 49 50 51 52 54 54 54 54 53 54 54 53 53 54 53 53
57 56 57 57 57 56 55 54 53 52 49 47 53 56 57 57 56 56 56 57 57 51 49 49 49 50 51 53 53 53 53 52 52 53 53 53 53 53
59 58 58 58 57 57 56 55 55 53 54 50 50 57 58 58 57 58 58 57 57 55 50 49 48 48 49 50 51 51 51 51 51 51 51 52 52 52
61 60 59 59 58 58 57 57 56 55 54 54 52 54 56 58 58 57 58 58 56 56 52 50 48 47 47 48 48 49 50 50 50 50 50 50 50 51
61 61 60 60 59 58 58 58 57 56 55 55 54 54 55 56 56 58 57 58 58 56 52 51 49 48 48 46 48 47 48 48 49 49 49 49 49 49
61 61 61 59 59 58 57 58 58 57 56 55 55 55 55 55 57 58 57 57 56 58 55 53 51 50 50 49 48 48 46 47 47 48 49 48 48 47
57 60 60 59 58 58 55 56 57 56 56 58 56 56 55 55 57 56 56 56 55 56 58 56 54 54 53 52 50 48 47 46 46 46 47 47 46 46
46 49 51 53 52 58 58 55 56 57 56 56 58 58 58 56 57 57 56 56 53 54 57 54 52 54 53 54 52 50 48 47 45 45 45 45 46 45
44 43 45 45 43 47 55 55 54 55 56 56 58 58 58 58 57 56 54 52 51 50 51 52 48 50 46 49 51 51 50 48 47 45 45 44 44 44
39 41 40 40 40 41 46 48 51 53 54 53 53 52 53 54 55 56 54 53 48 48 47 51 45 47 48 42 42 46 47 47 46 45 44 44 43 43
35 38 39 38 38 38 39 44 43 44 46 50 51 52 54 53 52 52 55 54 48 50 48 50 44 43 47 46 39 39 43 42 44 43 43 43 42 43
34 36 36 36 36 36 36 38 39 40 42 45 46 47 48 50 52 51 52 52 50 52 48 48 46 45 45 44 47 37 38 40 42 42 42 42 42 42
36 35 35 35 36 37 38 38 38 38 40 42 43 45 45 46 44 44 41 41 41 40 44 45 46 43 45 45 44 39 40 38 40 40 40 40 40 39
34 33 33 33 34 36 37 38 37 38 38 40 41 41 41 42 43 43 43 41 43 40 36 39 42 43 43 42 43 39 37 41 37 39 39 39 39 40
32 32 32 32 33 33 34 36 37 38 38 38 39 40 41 41 41 39 40 39 42 40 38 35 37 38 37 39 40 38 36 36 36 37 37 36 35 38
31 31 30 32 32 32 33 34 36 37 37 38 38 38 39 40 40 38 38 40 40 39 37 33 34 36 35 35 35 36 35 34 35 36 36 34 33 34
31 31 30 30 30 32 33 33 34 37 38 38 38 37 38 38 38 38 38 38 38 38 36 34 35 37 35 37 32 34 34 33 34 34 34 34 33 32
31 30 30 30 31 32 32 33 33 35 36 38 38 38 38 38 37 37 37 37 37 36 34 34 35 37 39 37 32 31 35 33 33 31 30 30 31 32
32 30 30 31 32 31 31 30 31 32 35 38 38 38 37 37 37 37 37 37 37 36 34 34 35 37 34 33 32 29 31 35 34 33 31 30 29 30
33 33 32 32 31 31 33 32 32 31 33 35 36 37 37 37 36 36 36 36 35 35 35 34 34 34 34 34 30 28 27 29 30 29 29 32 30 29
33 33 34 34 33 32 33 33 33 32 33 34 34 35 35 34 36 36 36 36 35 34 33 31 32 34 33 31 29 28 27 28 29 28 27 29 30 30